Погода в Перехляе

Россия / Кемеровская область (Кузбасс)     54°52′46″N   86°34′52″E
темп.,
°C
ветер,
м/с
пор.,
м/с
влажн.,
%
обл.,
%
осадки,
мм/ч
давл.,
гПа
погр.,
м
7 мая, пт
пт701:00+15ююв3775100 0.0 1003100
04:00+14юв388298 0.0 1002132
07:00+14ю3780100 0.0 1002154
10:00+16зсз7971100 0.0 1004780
13:00+18зсз7844100 0.0 10071586
16:00+18зсз8941100 0.0 10082201
19:00+16зсз694278 0.0 10111392
22:00+11зюз4105432 0.0 1014210
8 мая, сб
сб801:00+11з6125293 0.0 1015446
04:00+7з38705 0.0 1017152
07:00+8зюз410670 0.0 1018367
10:00+13з69400 0.0 10181584
13:00+16з7113891 0.0 10162301
16:00+15з7125026 0.0 10151232
19:00+16з81355100 0.2 10151991
22:00+12з3880100 0.7 1015195
9 мая, вс
вс901:00+10з37874 0.9 1015119
04:00+7ссз36914 0.0 1016139
07:00+6с48815 0.0 1018367
10:00+8ссз56565 0.0 10191055
13:00+11ссз45425 0.0 10191638
16:00+13с453628 0.0 10182038
19:00+12ссв554331 0.0 10191936
22:00+6св39630 0.0 1021185
10 мая, пн
пн1001:00+4св310710 0.0 1021210
04:00+3ссв39780 0.0 1021201
07:00+5св511735 0.0 1020452
10:00+10всв67474 0.0 10191103
13:00+14в68345 0.0 10161780
16:00+16всв793319 0.0 10142161
19:00+14св610436 0.0 10141880
22:00+9св8155630 0.0 1015583
11 мая, вт
вт1101:00+7св512660 0.0 1015430
04:00+6св613690 0.0 1014443
07:00+7св613710 0.0 1014647
10:00+12всв810482 0.0 10131203
13:00+16всв783513 0.0 10131929
16:00+18всв683129 0.0 10122461
19:00+16св5941100 0.0 1013919
22:00+12св61448100 0.0 1014552